GW6215 Weather Reports


Display with metric or nautical units.
time (UTC)temp
F
wind
direction
speed
MPH
gust
MPH
rain 1hr
in
rain 24hr
in
rain mn
in
humidity
%
barometer
mb
20260510115528 55 41 0.0 3.0 0.00 0.00 0.00 91 1015.8
20260510115028 54 34 0.0 2.0 0.00 0.00 0.00 91 1015.9
20260510114543 54 0 0.0 0.0 0.00 0.00 0.00 90 1015.7
20260510114028 54 0 0.0 0.0 0.00 0.00 0.00 90 1015.6
20260510113528 54 0 0.0 0.0 0.00 0.00 0.00 89 1015.4
20260510113034 54 0 0.0 0.0 0.00 0.00 0.00 89 1015.4
20260510112530 55 0 0.0 0.0 0.00 0.00 0.00 89 1015.4
20260510112027 55 0 0.0 0.0 0.00 0.00 0.00 89 1015.1
20260510111536 54 0 0.0 0.0 0.00 0.00 0.00 90 1015.0
20260510111025 55 0 0.0 0.0 0.00 0.00 0.00 89 1015.1
20260510110525 55 0 0.0 0.0 0.00 0.00 0.00 90 1015.0
20260510110038 55 0 0.0 0.0 0.00 0.00 0.00 91 1015.0
20260510105525 54 0 0.0 1.0 0.00 0.00 0.00 91 1015.0
20260510105028 54 0 0.0 1.0 0.00 0.00 0.00 91 1014.9
20260510104536 54 0 0.0 3.0 0.00 0.00 0.00 91 1014.7
20260510104026 54 0 0.0 3.0 0.00 0.00 0.00 92 1014.6
20260510103551 54 0 0.0 0.0 0.00 0.00 0.00 92 1014.8
20260510103036 54 0 0.0 2.0 0.00 0.00 0.00 92 1014.7
20260510102525 54 0 0.0 2.0 0.00 0.00 0.00 92 1014.8
20260510102031 54 0 0.0 0.0 0.00 0.00 0.00 91 1014.8
20260510101535 54 0 0.0 0.0 0.00 0.00 0.00 91 1014.7
20260510101027 54 0 0.0 0.0 0.00 0.00 0.00 91 1014.6
20260510100530 54 0 0.0 1.0 0.00 0.00 0.00 90 1014.5
20260510100056 54 0 0.0 1.0 0.00 0.00 0.00 90 1014.4
20260510095524 55 0 0.0 0.0 0.00 0.00 0.00 90 1014.4
20260510095029 55 0 0.0 2.0 0.00 0.00 0.00 90 1014.3
20260510094550 55 0 0.0 2.0 0.00 0.00 0.00 90 1014.3
20260510094028 55 70 0.0 1.0 0.00 0.00 0.00 89 1014.3
20260510093531 55 0 0.0 2.0 0.00 0.00 0.00 89 1014.4
20260510093037 55 0 0.0 2.0 0.00 0.00 0.00 89 1014.3
20260510092531 55 192 2.0 2.0 0.00 0.00 0.00 89 1014.2
20260510092025 56 0 0.0 1.0 0.00 0.00 0.00 88 1014.1
20260510091535 56 0 0.0 1.0 0.00 0.00 0.00 89 1014.1
20260510091027 56 0 0.0 2.0 0.00 0.00 0.00 89 1014.0
20260510090526 56 0 0.0 2.0 0.00 0.00 0.00 89 1014.0
20260510090045 56 21 0.0 2.0 0.00 0.00 0.00 88 1014.0
20260510085526 56 0 0.0 2.0 0.00 0.00 0.00 88 1014.0
20260510085027 56 0 0.0 2.0 0.00 0.00 0.00 88 1013.8
20260510084603 56 300 1.0 2.0 0.00 0.00 0.00 88 1013.9
20260510084028 56 125 0.0 1.0 0.00 0.00 0.00 88 1013.7
20260510083524 56 0 0.0 2.0 0.00 0.00 0.00 88 1013.6
20260510083037 56 0 0.0 2.0 0.00 0.00 0.00 88 1013.4
20260510082527 56 74 1.0 5.0 0.00 0.00 0.00 88 1013.3
20260510082025 56 0 0.0 5.0 0.00 0.00 0.00 88 1013.5
20260510081548 56 210 0.0 2.0 0.00 0.00 0.00 87 1013.6
20260510081027 57 0 0.0 2.0 0.00 0.00 0.00 87 1013.6
20260510080528 56 87 0.0 1.0 0.00 0.00 0.00 89 1013.7
20260510080035 56 0 0.0 1.0 0.00 0.00 0.00 88 1013.8
20260510075525 56 0 0.0 1.0 0.00 0.00 0.00 89 1013.7
20260510075025 55 0 0.0 1.0 0.00 0.00 0.00 89 1013.8
20260510074536 55 0 0.0 2.0 0.00 0.00 0.00 90 1013.9
20260510074025 55 0 0.0 2.0 0.00 0.00 0.00 90 1013.9
20260510073524 55 0 0.0 2.0 0.00 0.00 0.00 90 1013.8
20260510073044 55 0 0.0 3.0 0.00 0.00 0.00 90 1013.6
20260510072527 54 0 1.0 3.0 0.00 0.00 0.00 90 1013.6
20260510072031 54 215 0.0 0.0 0.00 0.00 0.00 90 1013.5
20260510071544 54 0 0.0 0.0 0.00 0.00 0.00 89 1013.6
20260510071027 54 0 0.0 0.0 0.00 0.00 0.00 89 1013.5
20260510070526 54 0 0.0 0.0 0.00 0.00 0.00 89 1013.4
20260510070045 55 0 0.0 0.0 0.00 0.00 0.00 88 1013.5
20260510065525 55 0 0.0 0.0 0.00 0.01 0.00 88 1013.6
20260510065025 55 0 0.0 0.0 0.00 0.01 0.00 88 1013.5
20260510064537 55 0 0.0 0.0 0.00 0.01 0.00 88 1013.4
20260510064026 56 0 0.0 0.0 0.00 0.01 0.00 87 1013.5
20260510063526 56 0 0.0 1.0 0.00 0.01 0.00 87 1013.4
20260510063047 56 0 0.0 5.0 0.00 0.01 0.00 87 1013.6
20260510062529 56 0 0.0 7.0 0.00 0.01 0.00 88 1013.6
20260510062026 56 349 3.0 7.0 0.00 0.01 0.00 89 1013.5
20260510061542 55 30 4.0 7.0 0.00 0.01 0.00 90 1013.5
20260510061031 54 212 0.0 2.0 0.00 0.01 0.00 90 1013.3
20260510060526 54 0 0.0 0.0 0.00 0.01 0.00 89 1013.2
20260510060039 54 0 0.0 0.0 0.00 0.01 0.00 88 1013.2
20260510055525 55 0 0.0 0.0 0.00 0.01 0.00 87 1013.1
20260510055028 55 0 0.0 0.0 0.00 0.01 0.00 87 1013.2
20260510054536 56 0 0.0 0.0 0.00 0.01 0.00 88 1013.2
20260510054025 56 0 0.0 0.0 0.00 0.01 0.00 88 1013.2
20260510053525 56 0 0.0 0.0 0.00 0.01 0.00 88 1013.1
20260510053038 56 0 0.0 0.0 0.00 0.01 0.00 88 1013.2
20260510052524 56 0 0.0 0.0 0.00 0.01 0.00 87 1013.3
20260510052028 56 0 0.0 0.0 0.00 0.01 0.00 87 1013.3
20260510051546 56 0 0.0 0.0 0.00 0.01 0.00 87 1013.3
20260510051028 56 0 0.0 0.0 0.00 0.01 0.00 86 1013.2
20260510050525 56 0 0.0 0.0 0.00 0.01 0.00 86 1013.2
20260510050041 57 0 0.0 0.0 0.00 0.01 0.00 86 1013.0
20260510045529 57 0 0.0 0.0 0.00 0.01 0.01 86 1013.0
20260510045025 57 0 0.0 0.0 0.00 0.01 0.01 87 1013.0
20260510044537 56 0 0.0 0.0 0.00 0.01 0.01 87 1012.9
20260510044028 56 0 0.0 0.0 0.00 0.01 0.01 87 1013.0
20260510043528 56 0 0.0 0.0 0.00 0.01 0.01 86 1013.1
20260510043039 55 0 0.0 0.0 0.00 0.01 0.01 86 1012.9
20260510042550 55 0 0.0 0.0 0.00 0.01 0.01 85 1013.0
20260510042027 55 0 0.0 0.0 0.00 0.01 0.01 85 1013.0
20260510041534 55 0 0.0 0.0 0.00 0.01 0.01 84 1012.9
20260510041027 56 0 0.0 0.0 0.00 0.01 0.01 84 1012.8
20260510040525 56 0 0.0 0.0 0.00 0.01 0.01 84 1012.7
20260510040047 56 0 0.0 0.0 0.00 0.01 0.01 82 1012.6
20260510035526 57 0 0.0 0.0 0.00 0.04 0.01 82 1012.7
20260510035026 57 0 0.0 0.0 0.00 0.04 0.01 81 1012.6
20260510034544 58 0 0.0 0.0 0.00 0.04 0.01 82 1012.5
20260510034026 58 0 0.0 0.0 0.00 0.04 0.01 82 1012.5
20260510033527 58 0 0.0 0.0 0.00 0.04 0.01 82 1012.5
20260510033035 58 0 0.0 0.0 0.00 0.04 0.01 82 1012.5
20260510032526 57 0 0.0 0.0 0.00 0.04 0.01 84 1012.5
20260510032026 57 0 0.0 0.0 0.00 0.04 0.01 82 1012.5
20260510031535 57 0 0.0 0.0 0.00 0.04 0.01 80 1012.4
20260510031031 57 0 0.0 0.0 0.00 0.04 0.01 79 1012.4
20260510030529 58 0 0.0 0.0 0.00 0.04 0.01 79 1012.3
20260510030037 58 0 0.0 0.0 0.00 0.04 0.01 79 1012.2
20260510025529 58 0 0.0 0.0 0.00 0.05 0.01 79 1012.2
20260510025028 58 0 0.0 0.0 0.00 0.05 0.01 79 1012.0
20260510024541 58 0 0.0 0.0 0.00 0.05 0.01 79 1011.9
20260510024025 59 0 0.0 0.0 0.00 0.05 0.01 79 1011.7
20260510023528 59 0 0.0 0.0 0.00 0.05 0.01 78 1011.5
20260510023036 59 0 0.0 0.0 0.00 0.05 0.01 77 1011.4
20260510022529 60 0 0.0 0.0 0.00 0.05 0.01 76 1011.5
20260510022027 60 0 0.0 0.0 0.00 0.05 0.01 76 1011.4
20260510021535 60 0 0.0 0.0 0.00 0.05 0.01 75 1011.4
20260510021027 61 0 0.0 0.0 0.00 0.05 0.01 75 1011.4
20260510020530 61 0 0.0 0.0 0.00 0.05 0.01 73 1011.1
20260510020047 62 0 0.0 0.0 0.00 0.05 0.01 73 1010.9
20260510015528 63 0 0.0 0.0 0.00 0.05 0.01 72 1010.8
20260510015027 63 0 0.0 0.0 0.00 0.05 0.01 71 1010.6
20260510014547 64 0 0.0 0.0 0.00 0.05 0.01 70 1010.6
20260510014028 65 0 0.0 0.0 0.00 0.05 0.01 69 1010.5
20260510013527 65 0 0.0 0.0 0.00 0.05 0.01 68 1010.4
20260510013038 66 0 0.0 0.0 0.00 0.05 0.01 67 1010.2
20260510012528 67 0 0.0 0.0 0.00 0.05 0.01 65 1010.4
20260510012031 68 0 0.0 0.0 0.00 0.05 0.01 65 1010.4
20260510011541 69 0 0.0 0.0 0.00 0.05 0.01 62 1010.4
20260510011028 71 0 0.0 0.0 0.00 0.05 0.01 61 1010.3
20260510010528 72 0 0.0 0.0 0.00 0.05 0.01 58 1010.3
20260510010036 74 0 0.0 0.0 0.00 0.05 0.01 54 1010.2
20260510005528 76 0 0.0 0.0 0.00 0.05 0.01 53 1010.1
20260510005028 77 0 0.0 0.0 0.00 0.05 0.01 49 1010.1
20260510004543 78 0 0.0 0.0 0.00 0.05 0.01 46 1010.1
20260510004028 79 0 0.0 0.0 0.00 0.05 0.01 44 1010.1
20260510003528 79 0 0.0 1.0 0.00 0.05 0.01 42 1010.1
20260510003039 79 0 0.0 3.0 0.00 0.05 0.01 41 1010.0
20260510002528 79 0 1.0 4.0 0.00 0.05 0.01 38 1009.9
20260510002027 79 215 2.0 4.0 0.00 0.05 0.01 37 1009.9
20260510001537 79 219 2.0 5.0 0.00 0.05 0.01 36 1009.9
20260510001030 79 224 2.0 7.0 0.00 0.05 0.01 36 1009.9
20260510000525 79 210 3.0 7.0 0.00 0.05 0.01 36 1009.9
20260510000100 80 219 4.0 7.0 0.00 0.05 0.01 36 1009.9
20260509235528 80 221 2.0 8.0 0.00 0.05 0.01 36 1009.9
20260509235027 80 209 4.0 8.0 0.00 0.05 0.01 36 1010.0
20260509234548 80 259 4.0 8.0 0.00 0.05 0.01 36 1009.9
20260509234028 80 234 3.0 8.0 0.00 0.05 0.01 35 1010.0
20260509233531 81 235 3.0 8.0 0.00 0.05 0.01 36 1010.0
20260509233045 81 205 4.0 8.0 0.00 0.05 0.01 35 1010.0
20260509232530 82 351 2.0 6.0 0.00 0.05 0.01 37 1010.0
20260509232028 82 170 2.0 6.0 0.00 0.05 0.01 34 1009.9
20260509231535 82 224 0.0 3.0 0.00 0.05 0.01 35 1010.0
20260509231027 82 240 0.0 4.0 0.00 0.05 0.01 36 1010.0
20260509230526 81 298 0.0 7.0 0.00 0.05 0.01 39 1009.9
20260509230044 81 271 2.0 8.0 0.00 0.05 0.01 34 1009.9
20260509225525 81 254 3.0 9.0 0.00 0.05 0.01 35 1009.9
20260509225028 81 288 5.0 9.0 0.00 0.05 0.01 35 1009.8
20260509224542 82 217 2.0 7.0 0.00 0.05 0.01 36 1009.8
20260509224028 81 200 2.0 6.0 0.00 0.05 0.01 35 1009.9
20260509223526 81 323 3.0 6.0 0.00 0.05 0.01 33 1009.9
20260509223036 81 292 3.0 7.0 0.00 0.05 0.01 34 1010.0
20260509222524 81 342 3.0 7.0 0.00 0.05 0.01 36 1009.9
20260509222025 81 293 4.0 8.0 0.00 0.05 0.01 35 1009.9
20260509221535 81 304 3.0 8.0 0.00 0.05 0.01 34 1010.0
20260509221026 81 321 5.0 8.0 0.00 0.05 0.01 33 1010.1
20260509220527 82 280 4.0 8.0 0.00 0.05 0.01 34 1010.0
20260509220036 82 206 1.0 6.0 0.00 0.05 0.01 37 1010.0
20260509215525 82 290 2.0 6.0 0.00 0.05 0.01 31 1010.0
20260509215031 82 224 2.0 6.0 0.00 0.05 0.01 33 1010.0
20260509214536 81 328 3.0 7.0 0.00 0.05 0.01 32 1010.0
20260509214028 81 249 3.0 8.0 0.00 0.05 0.01 31 1010.0
20260509213531 81 297 4.0 9.0 0.00 0.05 0.01 31 1010.0
20260509213040 81 292 5.0 9.0 0.00 0.05 0.01 31 1010.1
20260509212527 82 264 1.0 7.0 0.00 0.05 0.01 34 1010.0
20260509212025 82 250 1.0 7.0 0.00 0.05 0.01 32 1010.0
20260509211539 81 304 1.0 7.0 0.00 0.05 0.01 38 1010.0
20260509211025 81 301 5.0 7.0 0.00 0.05 0.01 33 1010.1
20260509210527 81 345 2.0 7.0 0.00 0.05 0.01 31 1010.1
20260509210042 81 304 3.0 7.0 0.00 0.05 0.01 31 1010.1
20260509205528 81 294 3.0 8.0 0.00 0.05 0.01 31 1010.2
20260509205025 82 348 2.0 11.0 0.00 0.05 0.01 35 1010.3
20260509204550 81 307 3.0 11.0 0.00 0.05 0.01 31 1010.3
20260509204028 81 221 2.0 8.0 0.00 0.05 0.01 32 1010.2
20260509203529 81 299 2.0 7.0 0.00 0.05 0.01 29 1010.4
20260509203039 80 0 2.0 9.0 0.00 0.05 0.01 34 1010.2
20260509202528 81 326 4.0 12.0 0.00 0.05 0.01 35 1010.5
20260509202028 80 282 6.0 12.0 0.00 0.05 0.01 31 1010.5
20260509201540 80 242 4.0 10.0 0.00 0.05 0.01 32 1010.6
20260509201028 80 304 6.0 10.0 0.00 0.05 0.01 31 1010.7
20260509200532 80 240 5.0 9.0 0.00 0.05 0.01 35 1010.8
20260509200041 80 297 4.0 10.0 0.00 0.05 0.01 34 1010.7
20260509195531 80 0 4.0 11.0 0.00 0.05 0.01 37 1010.8
20260509195024 80 239 4.0 13.0 0.00 0.05 0.01 33 1010.8
20260509194538 80 255 6.0 13.0 0.00 0.05 0.01 33 1011.0
20260509194028 81 266 7.0 13.0 0.00 0.05 0.01 34 1011.0
20260509193528 80 0 2.0 14.0 0.00 0.05 0.01 34 1010.9
20260509193043 80 214 3.0 14.0 0.00 0.05 0.01 35 1011.0
20260509192528 80 239 6.0 14.0 0.00 0.05 0.01 35 1010.9
20260509192030 80 317 0.0 7.0 0.00 0.05 0.01 37 1010.9
20260509191543 80 356 4.0 8.0 0.00 0.05 0.01 39 1010.9
20260509191027 80 326 3.0 8.0 0.00 0.05 0.01 43 1011.0
20260509190528 80 200 4.0 8.0 0.00 0.05 0.01 37 1011.0
20260509190039 79 248 4.0 10.0 0.00 0.05 0.01 37 1011.0
20260509185528 79 290 4.0 10.0 0.00 0.05 0.01 38 1011.1
20260509185029 79 344 3.0 12.0 0.00 0.05 0.01 36 1011.1
20260509184553 79 222 7.0 16.0 0.00 0.05 0.01 36 1011.1
20260509184028 80 270 4.0 16.0 0.00 0.05 0.01 38 1011.0
20260509183525 79 126 3.0 11.0 0.00 0.05 0.01 41 1011.0
20260509183035 79 229 5.0 12.0 0.00 0.05 0.01 36 1011.0
20260509182528 79 245 4.0 12.0 0.00 0.05 0.01 40 1011.1
20260509182028 79 259 3.0 8.0 0.00 0.05 0.01 37 1011.1
20260509181539 79 271 2.0 8.0 0.00 0.05 0.01 38 1011.1
20260509181029 79 288 2.0 8.0 0.00 0.05 0.01 38 1011.0
20260509180528 79 276 2.0 10.0 0.00 0.05 0.01 36 1011.0
20260509180043 79 242 4.0 10.0 0.00 0.05 0.01 40 1011.0
20260509175525 79 278 1.0 11.0 0.00 0.05 0.01 38 1011.1
20260509175027 78 326 3.0 11.0 0.00 0.05 0.01 37 1011.1
20260509174542 78 311 6.0 11.0 0.00 0.05 0.01 40 1011.1
20260509174027 78 44 3.0 9.0 0.00 0.05 0.01 43 1011.2
20260509173529 78 271 4.0 9.0 0.00 0.05 0.01 40 1011.2
20260509173038 78 302 5.0 8.0 0.00 0.05 0.01 40 1011.2
20260509172528 78 270 4.0 9.0 0.00 0.05 0.01 40 1011.2
20260509172028 77 306 3.0 12.0 0.00 0.05 0.01 43 1011.3
20260509171537 77 296 5.0 12.0 0.00 0.05 0.01 41 1011.4
20260509171024 77 328 2.0 9.0 0.00 0.05 0.01 45 1011.4
20260509170527 77 243 4.0 11.0 0.00 0.05 0.01 44 1011.4
20260509170038 77 308 4.0 11.0 0.00 0.05 0.01 43 1011.5
20260509165532 77 341 4.0 10.0 0.00 0.05 0.01 42 1011.5
20260509165028 76 316 4.0 10.0 0.00 0.05 0.01 41 1011.4
20260509164534 76 249 5.0 10.0 0.00 0.05 0.01 45 1011.4
20260509164026 76 290 4.0 10.0 0.00 0.05 0.01 46 1011.4
20260509163531 76 311 4.0 9.0 0.00 0.05 0.01 46 1011.4
20260509163040 76 235 2.0 9.0 0.00 0.05 0.01 51 1011.4
20260509162529 76 258 2.0 7.0 0.00 0.05 0.01 53 1011.3
20260509162027 75 271 1.0 8.0 0.00 0.05 0.01 53 1011.4
20260509161536 75 283 4.0 8.0 0.00 0.05 0.01 54 1011.5
20260509161029 74 285 4.0 6.0 0.00 0.05 0.01 55 1011.4
20260509160528 74 326 3.0 6.0 0.00 0.05 0.01 56 1011.4
20260509160040 74 0 0.0 4.0 0.00 0.05 0.01 63 1011.4
20260509155529 73 304 1.0 6.0 0.00 0.05 0.01 62 1011.4
20260509155028 73 309 1.0 6.0 0.00 0.05 0.01 63 1011.4
20260509154535 73 285 2.0 7.0 0.00 0.05 0.01 62 1011.3
20260509154032 72 0 1.0 7.0 0.00 0.05 0.01 62 1011.3
20260509153528 72 223 4.0 7.0 0.00 0.05 0.01 66 1011.3
20260509153046 72 230 1.0 6.0 0.00 0.05 0.01 66 1011.2
20260509152528 71 253 3.0 6.0 0.00 0.05 0.01 64 1011.3
20260509152036 71 322 1.0 5.0 0.00 0.05 0.01 68 1011.2
20260509151544 70 0 1.0 4.0 0.00 0.05 0.01 68 1011.4
20260509151028 70 274 1.0 4.0 0.00 0.05 0.01 69 1011.4
20260509150528 70 263 1.0 4.0 0.00 0.05 0.01 72 1011.2
20260509150040 69 0 1.0 4.0 0.00 0.05 0.01 73 1011.2
20260509145528 69 260 1.0 6.0 0.00 0.05 0.01 73 1011.2
20260509145029 68 283 2.0 6.0 0.00 0.05 0.01 73 1011.3
20260509144602 68 268 0.0 4.0 0.00 0.05 0.01 76 1011.2
20260509144031 68 289 1.0 5.0 0.00 0.05 0.01 78 1011.3
20260509143528 67 0 1.0 5.0 0.00 0.05 0.01 77 1011.3
20260509143049 67 319 2.0 5.0 0.00 0.05 0.01 77 1011.2
20260509142529 67 23 0.0 1.0 0.00 0.05 0.01 82 1011.1
20260509142028 66 354 0.0 2.0 0.00 0.05 0.01 83 1011.1
20260509141542 66 0 0.0 2.0 0.00 0.05 0.01 84 1011.1
20260509141028 65 0 0.0 2.0 0.00 0.05 0.01 85 1011.1
20260509140528 65 326 0.0 1.0 0.00 0.05 0.01 85 1011.1
20260509140041 64 63 0.0 1.0 0.00 0.05 0.01 86 1011.1
20260509135529 64 0 0.0 3.0 0.00 0.05 0.01 88 1011.1
20260509135030 63 0 0.0 5.0 0.00 0.05 0.01 89 1011.1
20260509134557 62 0 2.0 6.0 0.00 0.05 0.01 89 1011.2
20260509134027 61 236 3.0 6.0 0.00 0.05 0.01 90 1011.2
20260509133527 61 287 2.0 5.0 0.00 0.05 0.01 92 1011.1
20260509133043 60 293 2.0 5.0 0.00 0.05 0.01 93 1011.1
20260509132529 60 321 1.0 5.0 0.00 0.05 0.01 94 1011.1
20260509132025 59 316 2.0 5.0 0.00 0.05 0.01 96 1011.0
20260509131541 59 246 2.0 6.0 0.00 0.05 0.01 97 1011.1
20260509131028 58 238 1.0 6.0 0.00 0.05 0.01 97 1010.9
20260509130532 58 316 1.0 3.0 0.00 0.05 0.01 97 1010.9
20260509130054 58 0 0.0 0.0 0.00 0.05 0.01 97 1011.0
20260509125530 57 0 0.0 0.0 0.00 0.05 0.01 97 1011.0
20260509125031 56 0 0.0 0.0 0.00 0.05 0.01 97 1011.0
20260509124543 55 0 0.0 0.0 0.00 0.05 0.01 97 1011.0
20260509124028 54 0 0.0 0.0 0.00 0.05 0.01 97 1011.1
20260509123528 53 0 0.0 0.0 0.00 0.05 0.01 97 1010.9
20260509123038 52 0 0.0 0.0 0.00 0.05 0.01 97 1011.0
20260509122527 52 0 0.0 0.0 0.00 0.05 0.01 97 1011.0
20260509122028 52 0 0.0 0.0 0.00 0.05 0.01 97 1011.0
20260509121544 51 0 0.0 0.0 0.00 0.05 0.01 95 1011.0
20260509121028 51 0 0.0 0.0 0.00 0.05 0.01 95 1010.9
20260509120532 51 0 0.0 0.0 0.00 0.05 0.01 97 1010.7
20260509120035 51 0 0.0 0.0 0.00 0.05 0.01 96 1010.7